Flag for Tanzania Weather past 2 weeks in Dar es Salaam, Tanzania

Now
84 °F

Partly sunny.


Feels Like: 94 °F
Forecast: 76 / 87 °F
Wind: 9 mph from East

Location: Dar Es Salaam Airport


UV Index: 7 (High)

Visibility: N/A


Pressure: 29.86 "Hg

Humidity: 79%

Dew point: 77 °F

Location of Dar es SalaamLocation

Historic Weather in Dar es Salaam

°F

Dar es Salaam temperature yesterday

Maximum temperature yesterday: 79 °F (at 10:00 AM)
Minimum temperature yesterday: 75 °F (at 6:00 AM)
Average temperature yesterday: 77 °F

Past Weeks' High & Low Weather Summary

 TemperatureHumidityPressure
High90 °F (Apr 15, 2:00 PM)100% (Apr 9, 7:00 AM)30.01 "Hg (Apr 9, 7:00 AM)
Low66 °F (Apr 18, 10:00 AM)55% (Apr 14, 3:00 PM)29.80 "Hg (Apr 21, 3:00 PM)
Average79 °F89%29.92 "Hg
* Reported Apr 8 10:00 PM — Apr 23 5:00 PM, Dar es Salaam, Weather by CustomWeather, © 2014

Note: Actual official high and low records may vary slightly from our data, if they occured in-between our weather recording intervals... More about our weather records

Advertising

Historic Weather Conditions — Data for Previous 24 hours

 ConditionsComfort  
Time TempWeatherWind HumidityBarometerVisibility
5:00 PM
Apr 23
84 °FPartly sunny.9 mph79%29.86 "HgN/A
4:00 PM84 °FPartly sunny.7 mph79%29.86 "HgN/A
3:00 PM84 °FSprinkles. Broken clouds.6 mph79%29.86 "Hg4 mi
2:00 PM84 °FBroken clouds.6 mph79%29.89 "HgN/A
1:00 PM82 °FPartly sunny.6 mph89%29.92 "HgN/A
12:00 PM86 °FPartly sunny.12 mph79%29.92 "HgN/A
11:00 AM84 °FPartly sunny.6 mph79%29.95 "HgN/A
10:00 AM82 °FScattered clouds.12 mph84%29.95 "HgN/A
9:00 AM81 °FScattered clouds.6 mph89%29.95 "HgN/A
8:00 AM75 °FScattered clouds.5 mph100%29.95 "HgN/A
7:00 AM75 °FScattered clouds.5 mph100%29.92 "HgN/A
12:00 AM75 °FPassing clouds.6 mph94%29.92 "HgN/A
9:00 PM
Apr 22
75 °FPassing clouds.3 mph100%29.92 "HgN/A
8:00 PM77 °FWarm.3 mph94%29.92 "HgN/A
7:00 PM79 °FPartly cloudy.6 mph94%29.89 "HgN/A
6:00 PM79 °FBroken clouds.3 mph94%29.89 "HgN/A
Weather by CustomWeather, © 2014

See weather overview